When you browse on this site, cookies collect data to enhance your experience and personalize the content and advertising you see.
Visit our Privacy Policy to learn more. By continuing to use the site, you agree to this use of cookies and data.
  • In Romania
  • List of Countries
  • For 7 days
  • Water Temperature
  • Satellite Maps
  • Weather Map
  • Weather Widgets
  • user-avatar
    Login

    Hourly Weather Malaya Pesochnya

    Today, 18 April, Thursday

    Time Temperature Precipitation Wind Pressure Humidity
    00:00 +5°C° 0 mm 1 mps 755 mmHg 66%
    01:00 +4°C° 0 mm 1 mps 755 mmHg 69%
    02:00 +3°C° 0 mm 1 mps 755 mmHg 72%
    03:00 +3°C° 0 mm 1 mps 755 mmHg 75%
    04:00 +2°C° 0 mm 2 mps 754 mmHg 78%
    05:00 +2°C° 0 mm 2 mps 754 mmHg 80%
    06:00 +3°C° 0 mm 2 mps 754 mmHg 77%
    07:00 +4°C° 0 mm 3 mps 754 mmHg 73%
    08:00 +5°C° 0 mm 4 mps 754 mmHg 70%
    09:00 +6°C° 0 mm 4 mps 754 mmHg 64%
    10:00 +7°C° 0 mm 4 mps 754 mmHg 58%
    11:00 +8°C° 0 mm 4 mps 754 mmHg 51%
    12:00 +8°C° 0.1 mm 4 mps 754 mmHg 51%
    13:00 +10°C° 0.1 mm 4 mps 754 mmHg 50%
    14:00 +10°C° 0.1 mm 4 mps 754 mmHg 50%
    15:00 +10°C° 0.1 mm 4 mps 755 mmHg 53%
    16:00 +8°C° 0.1 mm 4 mps 755 mmHg 57%
    17:00 +9°C° 0.1 mm 3 mps 755 mmHg 60%
    18:00 +7°C° 0 mm 3 mps 755 mmHg 67%
    19:00 +5°C° 0 mm 3 mps 755 mmHg 74%
    20:00 +4°C° 0 mm 2 mps 756 mmHg 81%
    21:00 +4°C° 0 mm 2 mps 756 mmHg 83%
    22:00 +3°C° 0 mm 2 mps 756 mmHg 85%
    23:00 +2°C° 0 mm 2 mps 757 mmHg 87%

    Tomorrow, 19 April, Friday

    Time Temperature Precipitation Wind Pressure Humidity
    00:00 +2°C° 0 mm 2 mps 757 mmHg 88%
    01:00 +1°C° 0 mm 2 mps 757 mmHg 89%
    02:00 +1°C° 0 mm 2 mps 757 mmHg 90%
    03:00 +1°C° 0 mm 2 mps 757 mmHg 91%
    04:00 +1°C° 0 mm 1 mps 757 mmHg 91%
    05:00 +1°C° 0 mm 1 mps 758 mmHg 92%
    06:00 +3°C° 0 mm 1 mps 758 mmHg 82%
    07:00 +4°C° 0 mm 2 mps 758 mmHg 73%
    08:00 +6°C° 0 mm 2 mps 758 mmHg 63%
    09:00 +7°C° 0 mm 2 mps 758 mmHg 58%
    10:00 +8°C° 0 mm 2 mps 757 mmHg 52%
    11:00 +9°C° 0 mm 2 mps 757 mmHg 46%
    12:00 +10°C° 0 mm 2 mps 757 mmHg 44%
    13:00 +12°C° 0 mm 1 mps 756 mmHg 42%
    14:00 +12°C° 0 mm 1 mps 756 mmHg 40%
    15:00 +12°C° 0 mm 1 mps 756 mmHg 41%
    16:00 +12°C° 0 mm 1 mps 755 mmHg 42%
    17:00 +12°C° 0 mm 1 mps 755 mmHg 43%
    18:00 +10°C° 0 mm 1 mps 754 mmHg 50%
    19:00 +9°C° 0 mm 1 mps 754 mmHg 56%
    20:00 +7°C° 0 mm 1 mps 754 mmHg 62%
    21:00 +7°C° 0 mm 1 mps 754 mmHg 65%
    22:00 +6°C° 0 mm 1 mps 754 mmHg 67%
    23:00 +6°C° 0 mm 1 mps 753 mmHg 70%

    Day after tomorrow, 20 April, Saturday

    Time Temperature Precipitation Wind Pressure Humidity
    00:00 +5°C° 0.2 mm 2 mps 753 mmHg 73%
    01:00 +5°C° 0.2 mm 2 mps 753 mmHg 77%
    02:00 +5°C° 0.2 mm 2 mps 752 mmHg 81%
    03:00 +5°C° 0.5 mm 2 mps 752 mmHg 85%
    04:00 +5°C° 0.5 mm 2 mps 752 mmHg 89%
    05:00 +5°C° 0.5 mm 2 mps 752 mmHg 94%
    06:00 +5°C° 0.1 mm 2 mps 752 mmHg 88%
    07:00 +6°C° 0.1 mm 2 mps 752 mmHg 83%
    08:00 +7°C° 0.1 mm 3 mps 752 mmHg 78%
    09:00 +8°C° 0.1 mm 3 mps 752 mmHg 70%
    10:00 +9°C° 0.1 mm 3 mps 752 mmHg 63%
    11:00 +10°C° 0.1 mm 3 mps 752 mmHg 56%
    12:00 +10°C° 0.1 mm 3 mps 752 mmHg 56%
    13:00 +10°C° 0.1 mm 3 mps 752 mmHg 55%
    14:00 +10°C° 0.1 mm 3 mps 752 mmHg 55%
    15:00 +9°C° 0.3 mm 3 mps 752 mmHg 59%
    16:00 +9°C° 0.3 mm 3 mps 752 mmHg 63%
    17:00 +8°C° 0.3 mm 3 mps 752 mmHg 67%
    18:00 +5°C° 0 mm 3 mps 752 mmHg 73%
    19:00 +5°C° 0 mm 2 mps 752 mmHg 78%
    20:00 +4°C° 0 mm 2 mps 752 mmHg 83%
    21:00 +3°C° 0 mm 2 mps 752 mmHg 85%
    22:00 +3°C° 0 mm 2 mps 752 mmHg 86%
    23:00 +2°C° 0 mm 2 mps 753 mmHg 88%

    21 April, Sunday

    Time Temperature Precipitation Wind Pressure Humidity
    00:00 +2°C° 0 mm 2 mps 753 mmHg 90%
    01:00 +2°C° 0 mm 2 mps 753 mmHg 93%
    02:00 +1°C° 0 mm 2 mps 753 mmHg 95%
    03:00 +1°C° 0 mm 2 mps 753 mmHg 96%
    04:00 +2°C° 0 mm 1 mps 753 mmHg 97%
    05:00 +2°C° 0 mm 1 mps 753 mmHg 98%
    06:00 +4°C° 0 mm 1 mps 754 mmHg 93%
    07:00 +4°C° 0 mm 2 mps 754 mmHg 89%
    08:00 +6°C° 0 mm 2 mps 754 mmHg 85%
    09:00 +8°C° 0 mm 2 mps 754 mmHg 78%
    10:00 +9°C° 0 mm 2 mps 754 mmHg 71%
    11:00 +12°C° 0 mm 2 mps 754 mmHg 64%
    12:00 +12°C° 0 mm 2 mps 754 mmHg 63%
    13:00 +13°C° 0 mm 2 mps 754 mmHg 61%
    14:00 +13°C° 0 mm 1 mps 754 mmHg 60%
    15:00 +13°C° 0 mm 1 mps 754 mmHg 60%
    16:00 +13°C° 0 mm 1 mps 754 mmHg 61%
    17:00 +13°C° 0 mm 1 mps 754 mmHg 61%
    18:00 +11°C° 0 mm 1 mps 754 mmHg 68%
    19:00 +10°C° 0 mm 1 mps 754 mmHg 74%
    20:00 +8°C° 0 mm 1 mps 754 mmHg 81%
    21:00 +8°C° 0 mm 1 mps 754 mmHg 84%
    22:00 +7°C° 0 mm 1 mps 755 mmHg 86%
    23:00 +7°C° 0 mm 1 mps 755 mmHg 89%

    22 April, Monday

    Time Temperature Precipitation Wind Pressure Humidity
    00:00 +6°C° 0 mm 1 mps 755 mmHg 89%
    01:00 +5°C° 0 mm 0 mps 755 mmHg 89%
    02:00 +4°C° 0 mm 0 mps 755 mmHg 90%
    03:00 +5°C° 0 mm 1 mps 756 mmHg 90%
    04:00 +5°C° 0 mm 1 mps 756 mmHg 90%
    05:00 +5°C° 0 mm 1 mps 756 mmHg 90%
    06:00 +7°C° 0 mm 1 mps 756 mmHg 81%
    07:00 +9°C° 0 mm 1 mps 756 mmHg 72%
    08:00 +12°C° 0 mm 1 mps 757 mmHg 63%
    09:00 +13°C° 0 mm 1 mps 757 mmHg 57%
    10:00 +14°C° 0 mm 2 mps 757 mmHg 52%
    11:00 +16°C° 0 mm 2 mps 757 mmHg 46%
    12:00 +16°C° 0 mm 2 mps 757 mmHg 44%
    13:00 +16°C° 0 mm 2 mps 756 mmHg 43%
    14:00 +16°C° 0 mm 2 mps 756 mmHg 42%
    15:00 +16°C° 0 mm 2 mps 756 mmHg 43%
    16:00 +15°C° 0 mm 2 mps 756 mmHg 45%
    17:00 +15°C° 0 mm 2 mps 756 mmHg 47%
    18:00 +13°C° 0 mm 2 mps 756 mmHg 52%
    19:00 +12°C° 0 mm 2 mps 756 mmHg 57%
    20:00 +9°C° 0 mm 2 mps 756 mmHg 63%
    21:00 +8°C° 0 mm 2 mps 757 mmHg 64%
    22:00 +8°C° 0 mm 2 mps 757 mmHg 65%
    23:00 +7°C° 0 mm 2 mps 757 mmHg 66%

    23 April, Tuesday

    Time Temperature Precipitation Wind Pressure Humidity
    00:00 +7°C° 0 mm 2 mps 757 mmHg 67%
    01:00 +6°C° 0 mm 2 mps 758 mmHg 69%
    02:00 +6°C° 0 mm 2 mps 758 mmHg 71%
    03:00 +6°C° 0 mm 2 mps 758 mmHg 71%
    04:00 +5°C° 0 mm 2 mps 758 mmHg 72%
    05:00 +5°C° 0 mm 2 mps 758 mmHg 72%
    06:00 +7°C° 0 mm 2 mps 758 mmHg 66%
    07:00 +9°C° 0 mm 2 mps 758 mmHg 59%
    08:00 +11°C° 0 mm 3 mps 759 mmHg 52%
    09:00 +12°C° 0 mm 3 mps 758 mmHg 48%
    10:00 +14°C° 0 mm 3 mps 758 mmHg 44%
    11:00 +16°C° 0 mm 3 mps 758 mmHg 39%
    12:00 +16°C° 0 mm 3 mps 758 mmHg 39%
    13:00 +17°C° 0 mm 3 mps 758 mmHg 38%
    14:00 +17°C° 0 mm 3 mps 757 mmHg 37%
    15:00 +17°C° 0 mm 3 mps 757 mmHg 39%
    16:00 +16°C° 0 mm 2 mps 757 mmHg 41%
    17:00 +16°C° 0 mm 2 mps 756 mmHg 43%
    18:00 +14°C° 0 mm 2 mps 756 mmHg 49%
    19:00 +12°C° 0 mm 2 mps 756 mmHg 55%
    20:00 +10°C° 0 mm 2 mps 756 mmHg 61%
    21:00 +9°C° 0 mm 2 mps 756 mmHg 63%
    22:00 +8°C° 0 mm 2 mps 756 mmHg 65%
    23:00 +8°C° 0 mm 2 mps 756 mmHg 67%
    Show more